Language: 


Des rapports , des résumés tant et plus, au choix de chacun....


Données statistiques de la station
Quotidien Rapport Février 1, 2017 Unités:  Métrique    Anglais   les deux
« Précédent Jour
Suivant Jour »
Quotidien Hebdomadaire Mensuel Annuel Actuel
  Haut: Bas: Moyen:
Température: 9.2 °C 0.0 °C 7.7 °C
Pt de rosée: 8.7 °C 3.7 °C 7.3 °C
Humidité: 98 % 0 % 97 %
Vitesse du vent: 20.9 km/h 0.0 km/h 8.1 km/h
Rafales: 24.8 km/h - -
Vent:- - SSE
Pression: 1014.1 hPa 0.0 hPa -
Précipitation: 1.3 mm    
Historical Graphs
 
 
Données statistiques pour Février 1, 2017
Heure Température Point de rosée Pression Vent Vitesse du vent Refales Humidité Pluie (taux horaire)
00:02 4.0 °C 3.7 °C 1014.1 hPa SE 6.1 km/h 6.9 km/h 98 % 0.0 mm
00:07 4.0 °C 3.7 °C 1014.1 hPa SE 3.2 km/h 7.6 km/h 98 % 0.0 mm
00:12 4.0 °C 3.7 °C 1014.1 hPa Calm   7.6 km/h 98 % 0.0 mm
00:17 4.0 °C 3.7 °C 1014.1 hPa ESE 4.3 km/h 9.7 km/h 98 % 0.0 mm
00:22 4.1 °C 3.8 °C 1014.1 hPa East 6.4 km/h 9.7 km/h 98 % 0.0 mm
00:27 4.1 °C 3.8 °C 1014.1 hPa ESE 7.9 km/h 10.5 km/h 98 % 0.0 mm
00:32 4.1 °C 3.8 °C 1014.1 hPa SE 8.7 km/h 10.5 km/h 98 % 0.0 mm
00:37 4.2 °C 3.9 °C 1014.1 hPa Calm   10.1 km/h 98 % 0.0 mm
00:42 4.2 °C 3.9 °C 1014.1 hPa SE 6.4 km/h 10.8 km/h 98 % 0.0 mm
00:47 4.3 °C 4.0 °C 1014.1 hPa SE 5.5 km/h 10.8 km/h 98 % 0.0 mm
00:52 4.3 °C 4.0 °C 1014.1 hPa SE 8.7 km/h 10.5 km/h 98 % 0.0 mm
00:57 4.3 °C 4.0 °C 1014.1 hPa SE 5.8 km/h 10.5 km/h 98 % 0.0 mm
01:02 4.4 °C 4.1 °C 1014.1 hPa SE 4.7 km/h 9.7 km/h 98 % 0.0 mm
01:07 4.4 °C 4.1 °C 1014.1 hPa ESE 7.9 km/h 9.3 km/h 98 % 0.0 mm
01:12 4.5 °C 4.2 °C 1014.1 hPa SSE 9.0 km/h 10.5 km/h 98 % 0.0 mm
01:17 4.5 °C 4.2 °C 1014.1 hPa East 7.2 km/h 10.5 km/h 98 % 0.0 mm
01:22 4.6 °C 4.3 °C 1014.1 hPa SE 5.0 km/h 10.1 km/h 98 % 0.0 mm
01:27 4.6 °C 4.3 °C 1014.1 hPa ESE 4.3 km/h 9.7 km/h 98 % 0.0 mm
01:32 4.6 °C 4.3 °C 1014.1 hPa SSE 8.7 km/h 9.7 km/h 98 % 0.0 mm
01:37 4.7 °C 4.4 °C 1014.1 hPa SSE 6.1 km/h 10.1 km/h 98 % 0.0 mm
01:42 4.7 °C 4.4 °C 1014.1 hPa SE 5.8 km/h 10.1 km/h 98 % 0.0 mm
01:47 4.8 °C 4.5 °C 1014.1 hPa SE 8.7 km/h 10.5 km/h 98 % 0.0 mm
01:52 4.8 °C 4.5 °C 1013.1 hPa SE 7.6 km/h 10.5 km/h 98 % 0.0 mm
01:57 4.9 °C 4.6 °C 1013.1 hPa SSE 9.7 km/h 10.5 km/h 98 % 0.0 mm
02:03 0.0 °C 4.6 °C 1013.1 hPa SSE 6.1 km/h 9.0 km/h 0 % 0.0 mm
02:08 5.0 °C 4.7 °C 1014.1 hPa SSE 1.8 km/h 9.3 km/h 98 % 0.0 mm
02:13 5.0 °C 4.7 °C 1014.1 hPa SSE 6.9 km/h 11.9 km/h 98 % 0.0 mm
02:18 5.1 °C 4.8 °C 1014.1 hPa SE 8.7 km/h 11.9 km/h 98 % 0.0 mm
02:23 5.2 °C 4.9 °C 1013.1 hPa SSE 9.3 km/h 11.9 km/h 98 % 0.0 mm
02:28 5.2 °C 4.9 °C 1013.1 hPa ESE 7.9 km/h 12.2 km/h 98 % 0.0 mm
02:33 5.2 °C 4.9 °C 1013.1 hPa SSE 6.9 km/h 12.2 km/h 98 % 0.0 mm
02:38 5.2 °C 4.9 °C 1012.1 hPa SSE 10.5 km/h 12.2 km/h 98 % 0.0 mm
02:43 5.3 °C 5.0 °C 1012.1 hPa SSE 7.6 km/h 12.2 km/h 98 % 0.0 mm
02:48 5.3 °C 5.0 °C 1012.1 hPa SE 4.0 km/h 12.2 km/h 98 % 0.0 mm
02:53 5.4 °C 5.1 °C 1013.1 hPa ESE 7.9 km/h 12.2 km/h 98 % 0.0 mm
02:58 5.5 °C 5.2 °C 1013.1 hPa SE 6.4 km/h 11.1 km/h 98 % 0.0 mm
03:03 5.6 °C 5.3 °C 1013.1 hPa SSE 3.2 km/h 11.1 km/h 98 % 0.0 mm
03:08 5.7 °C 5.4 °C 0.0 hPa SE 7.9 km/h 10.1 km/h 98 % 0.0 mm
03:13 5.7 °C 5.4 °C 1013.1 hPa Calm   10.1 km/h 98 % 0.0 mm
03:18 5.7 °C 5.4 °C 1013.1 hPa SE 3.2 km/h 10.1 km/h 98 % 0.0 mm
03:23 5.8 °C 5.5 °C 1012.1 hPa SE 8.7 km/h 9.7 km/h 98 % 0.0 mm
03:28 5.9 °C 5.6 °C 1012.1 hPa SE 4.7 km/h 9.7 km/h 98 % 0.0 mm
03:33 5.9 °C 5.6 °C 1012.1 hPa South 9.7 km/h 10.5 km/h 98 % 0.0 mm
03:38 5.9 °C 5.6 °C 1014.1 hPa ESE 5.5 km/h 10.5 km/h 98 % 0.0 mm
03:43 6.0 °C 5.7 °C 1014.1 hPa SE 6.4 km/h 9.7 km/h 98 % 0.0 mm
03:48 6.0 °C 5.7 °C 1014.1 hPa SE 5.8 km/h 6.4 km/h 98 % 0.0 mm
03:53 6.1 °C 5.8 °C 1013.1 hPa SSE 5.0 km/h 6.9 km/h 98 % 0.0 mm
03:58 6.1 °C 5.8 °C 1013.1 hPa SE 6.9 km/h 9.0 km/h 98 % 0.0 mm
04:03 6.2 °C 5.9 °C 1013.1 hPa SE 5.5 km/h 9.7 km/h 98 % 0.0 mm
04:08 6.2 °C 5.9 °C 1013.1 hPa SSE 5.8 km/h 10.8 km/h 98 % 0.0 mm
04:13 6.3 °C 6.0 °C 1013.1 hPa SE 5.8 km/h 10.8 km/h 98 % 0.0 mm
04:18 6.3 °C 6.0 °C 1013.1 hPa ESE 3.2 km/h 10.5 km/h 98 % 0.0 mm
04:23 6.3 °C 6.0 °C 1013.1 hPa Calm   10.1 km/h 98 % 0.0 mm
04:28 6.3 °C 6.0 °C 1013.1 hPa SSE 4.0 km/h 9.3 km/h 98 % 0.0 mm
04:33 6.3 °C 6.0 °C 1013.1 hPa SSE 7.9 km/h 9.3 km/h 98 % 0.0 mm
04:38 6.4 °C 6.1 °C 1014.1 hPa SE 5.8 km/h 11.9 km/h 98 % 0.0 mm
04:43 6.4 °C 6.1 °C 1014.1 hPa SSE 9.7 km/h 11.9 km/h 98 % 0.0 mm
04:48 6.4 °C 6.1 °C 1014.1 hPa SE 5.8 km/h 10.1 km/h 98 % 0.0 mm
04:53 6.4 °C 6.1 °C 1013.1 hPa SSE 8.7 km/h 10.1 km/h 98 % 0.0 mm
04:58 6.4 °C 6.1 °C 1013.1 hPa SSW 8.7 km/h 11.9 km/h 98 % 0.0 mm
05:03 6.4 °C 6.1 °C 1013.1 hPa SSE 7.9 km/h 11.9 km/h 98 % 0.0 mm
05:08 6.4 °C 6.2 °C 1012.1 hPa SSE 5.8 km/h 10.8 km/h 98 % 0.0 mm
05:13 6.4 °C 6.2 °C 1012.1 hPa SSE 2.6 km/h 10.8 km/h 98 % 0.0 mm
05:18 6.4 °C 6.2 °C 1012.1 hPa SSE 7.9 km/h 9.3 km/h 98 % 0.0 mm
05:23 6.4 °C 6.2 °C 1012.1 hPa SSE 8.7 km/h 9.3 km/h 98 % 0.0 mm
05:28 6.4 °C 6.2 °C 1012.1 hPa South 6.1 km/h 9.7 km/h 98 % 0.0 mm
05:33 6.6 °C 6.3 °C 1012.1 hPa SSE 10.5 km/h 10.5 km/h 98 % 0.0 mm
05:38 6.6 °C 6.3 °C 1012.1 hPa ESE 5.0 km/h 10.5 km/h 98 % 0.0 mm
05:43 6.6 °C 6.3 °C 1012.1 hPa SE 3.2 km/h 10.5 km/h 98 % 0.0 mm
05:48 6.6 °C 6.3 °C 1012.1 hPa SE 4.3 km/h 9.7 km/h 98 % 0.0 mm
05:53 6.7 °C 6.4 °C 1012.1 hPa SSE 6.4 km/h 9.7 km/h 98 % 0.0 mm
05:58 6.7 °C 6.4 °C 1012.1 hPa SSE 3.2 km/h 7.9 km/h 98 % 0.0 mm
06:03 6.7 °C 6.4 °C 1012.1 hPa SSE 5.8 km/h 8.7 km/h 98 % 0.0 mm
06:08 6.7 °C 6.4 °C 1011.1 hPa Calm   8.7 km/h 98 % 0.0 mm
06:13 6.7 °C 6.4 °C 1011.1 hPa SE 6.4 km/h 7.6 km/h 98 % 0.0 mm
06:18 6.7 °C 6.4 °C 1011.1 hPa SSE 3.5 km/h 6.9 km/h 98 % 0.0 mm
06:23 6.7 °C 6.4 °C 1011.1 hPa SSE 7.9 km/h 7.9 km/h 98 % 0.0 mm
06:28 6.8 °C 6.4 °C 1011.1 hPa Calm   7.9 km/h 98 % 0.0 mm
06:33 6.8 °C 6.4 °C 1011.1 hPa SE 4.3 km/h 8.7 km/h 98 % 0.0 mm
06:38 6.8 °C 6.4 °C 1011.1 hPa SE 1.4 km/h 11.6 km/h 98 % 0.0 mm
06:43 6.8 °C 6.4 °C 1011.1 hPa SSE 4.0 km/h 11.6 km/h 97 % 0.0 mm
06:48 6.8 °C 6.4 °C 1011.1 hPa SSE 5.8 km/h 9.7 km/h 97 % 0.0 mm
06:53 6.8 °C 6.4 °C 1011.1 hPa Calm   6.9 km/h 97 % 0.0 mm
06:58 6.9 °C 6.5 °C 1011.1 hPa Calm   7.9 km/h 97 % 0.0 mm
07:03 6.9 °C 6.5 °C 1011.1 hPa Calm   7.9 km/h 97 % 0.0 mm
07:08 6.9 °C 6.5 °C 1011.1 hPa SE 10.1 km/h 10.5 km/h 97 % 0.0 mm
07:13 7.1 °C 6.6 °C 1011.1 hPa SSE 7.9 km/h 10.5 km/h 97 % 0.0 mm
07:18 7.1 °C 6.6 °C 1011.1 hPa SE 5.0 km/h 10.5 km/h 97 % 0.0 mm
07:23 7.2 °C 6.7 °C 1011.1 hPa SSE 6.4 km/h 10.1 km/h 97 % 0.0 mm
07:28 7.2 °C 6.7 °C 1011.1 hPa SSE 6.4 km/h 9.7 km/h 97 % 0.0 mm
07:33 7.2 °C 6.7 °C 1011.1 hPa SSE 4.3 km/h 9.0 km/h 97 % 0.0 mm
07:38 7.2 °C 6.7 °C 1010.0 hPa South 6.9 km/h 10.5 km/h 97 % 0.0 mm
07:43 7.3 °C 6.8 °C 1010.0 hPa SE 9.7 km/h 10.5 km/h 97 % 0.0 mm
07:48 7.3 °C 6.8 °C 1010.0 hPa SSE 9.7 km/h 10.5 km/h 97 % 0.0 mm
07:53 7.3 °C 6.9 °C 1011.1 hPa SE 1.4 km/h 10.5 km/h 97 % 0.0 mm
07:58 7.3 °C 6.9 °C 1011.1 hPa SSE 9.3 km/h 11.6 km/h 97 % 0.0 mm
08:03 7.3 °C 6.9 °C 1011.1 hPa SSE 7.6 km/h 11.6 km/h 97 % 0.0 mm
08:08 7.4 °C 7.0 °C 1011.1 hPa SSE 7.9 km/h 10.5 km/h 97 % 0.0 mm
08:13 7.4 °C 7.0 °C 1011.1 hPa SSE 5.0 km/h 11.6 km/h 97 % 0.0 mm
08:18 7.6 °C 7.1 °C 1011.1 hPa SE 4.7 km/h 12.2 km/h 97 % 0.0 mm
08:23 7.6 °C 7.1 °C 1010.0 hPa SSE 4.7 km/h 12.2 km/h 97 % 0.0 mm
08:28 7.6 °C 7.1 °C 1010.0 hPa Calm   11.6 km/h 97 % 0.0 mm
08:33 7.6 °C 7.1 °C 1010.0 hPa SE 7.9 km/h 11.9 km/h 97 % 0.0 mm
08:38 7.6 °C 7.1 °C 1011.1 hPa South 4.3 km/h 11.9 km/h 97 % 0.0 mm
08:43 7.6 °C 7.1 °C 1011.1 hPa SSE 6.1 km/h 10.5 km/h 97 % 0.0 mm
08:48 7.6 °C 7.1 °C 1011.1 hPa SE 1.4 km/h 10.1 km/h 97 % 0.0 mm
08:53 7.6 °C 7.1 °C 1010.0 hPa SSE 12.6 km/h 12.6 km/h 97 % 0.0 mm
08:58 7.6 °C 7.1 °C 1010.0 hPa SSE 10.1 km/h 12.6 km/h 97 % 0.0 mm
09:03 7.7 °C 7.2 °C 1010.0 hPa East 14.0 km/h 14.0 km/h 97 % 0.0 mm
09:08 7.7 °C 7.2 °C 1010.0 hPa SE 9.3 km/h 14.0 km/h 97 % 0.0 mm
09:13 7.7 °C 7.2 °C 1010.0 hPa SSE 10.5 km/h 13.7 km/h 97 % 0.0 mm
09:18 7.7 °C 7.2 °C 1010.0 hPa South 5.8 km/h 12.6 km/h 97 % 0.0 mm
09:23 7.7 °C 7.2 °C 1010.0 hPa SSE 9.3 km/h 12.6 km/h 97 % 0.0 mm
09:28 7.7 °C 7.2 °C 1010.0 hPa SE 7.2 km/h 17.2 km/h 97 % 0.0 mm
09:33 7.7 °C 7.3 °C 1010.0 hPa SSE 6.1 km/h 17.2 km/h 97 % 0.0 mm
09:38 7.7 °C 7.3 °C 1011.1 hPa SSW 4.3 km/h 12.2 km/h 97 % 0.0 mm
09:43 7.7 °C 7.3 °C 1011.1 hPa SSE 9.0 km/h 15.8 km/h 97 % 0.0 mm
09:48 7.7 °C 7.3 °C 1011.1 hPa SSE 8.7 km/h 15.8 km/h 97 % 0.0 mm
09:53 7.7 °C 7.3 °C 1011.1 hPa South 10.1 km/h 13.7 km/h 97 % 0.0 mm
09:58 7.8 °C 7.4 °C 1011.1 hPa SSE 4.7 km/h 13.0 km/h 97 % 0.0 mm
10:03 7.9 °C 7.5 °C 1011.1 hPa SSE 4.7 km/h 13.0 km/h 97 % 0.0 mm
10:08 7.9 °C 7.5 °C 1011.1 hPa SSE 5.5 km/h 10.5 km/h 97 % 0.0 mm
10:13 7.9 °C 7.5 °C 1011.1 hPa SSE 6.1 km/h 15.8 km/h 97 % 0.0 mm
10:18 8.1 °C 7.6 °C 1011.1 hPa SE 10.1 km/h 15.8 km/h 97 % 0.0 mm
10:23 8.1 °C 7.6 °C 1011.1 hPa SSE 8.7 km/h 11.9 km/h 97 % 0.0 mm
10:28 8.1 °C 7.7 °C 1011.1 hPa SSW 5.8 km/h 14.8 km/h 97 % 0.0 mm
10:33 8.1 °C 7.7 °C 1011.1 hPa South 8.7 km/h 14.8 km/h 97 % 0.0 mm
10:38 8.1 °C 7.7 °C 1011.1 hPa SSE 11.6 km/h 13.7 km/h 97 % 0.0 mm
10:43 8.1 °C 7.7 °C 1011.1 hPa SSW 6.9 km/h 11.6 km/h 97 % 0.0 mm
10:48 8.2 °C 7.8 °C 1011.1 hPa South 9.3 km/h 11.6 km/h 97 % 0.0 mm
10:53 8.2 °C 7.8 °C 1011.1 hPa SSE 2.6 km/h 10.8 km/h 97 % 0.0 mm
10:58 8.3 °C 7.9 °C 1011.1 hPa South 16.3 km/h 16.3 km/h 97 % 0.0 mm
11:03 8.4 °C 8.0 °C 1011.1 hPa SSE 6.4 km/h 16.3 km/h 97 % 0.0 mm
11:08 8.5 °C 8.1 °C 1011.1 hPa South 5.5 km/h 16.3 km/h 97 % 0.0 mm
11:13 8.6 °C 8.2 °C 1011.1 hPa SSE 11.6 km/h 14.0 km/h 97 % 0.0 mm
11:18 8.7 °C 8.3 °C 1011.1 hPa SSE 9.3 km/h 17.2 km/h 97 % 0.0 mm
11:23 8.7 °C 8.3 °C 1011.1 hPa SSE 6.4 km/h 17.7 km/h 97 % 0.0 mm
11:28 8.8 °C 8.2 °C 1011.1 hPa SW 11.6 km/h 17.7 km/h 96 % 0.0 mm
11:33 8.7 °C 8.3 °C 1011.1 hPa SSW 16.3 km/h 17.7 km/h 97 % 0.0 mm
11:38 8.7 °C 8.1 °C 1011.1 hPa SSE 17.7 km/h 17.7 km/h 96 % 0.0 mm
11:43 8.7 °C 8.1 °C 1011.1 hPa SSE 13.7 km/h 20.9 km/h 96 % 0.0 mm
11:48 8.7 °C 8.1 °C 1011.1 hPa SSE 11.9 km/h 23.3 km/h 96 % 0.0 mm
11:53 8.7 °C 8.1 °C 1011.1 hPa SSE 10.1 km/h 24.8 km/h 96 % 0.0 mm
11:58 8.7 °C 8.1 °C 1011.1 hPa South 16.6 km/h 24.8 km/h 96 % 0.0 mm
12:03 8.7 °C 8.1 °C 1011.1 hPa SSE 13.0 km/h 17.7 km/h 96 % 0.0 mm
12:08 8.7 °C 8.1 °C 1010.0 hPa South 6.4 km/h 19.5 km/h 96 % 0.0 mm
12:13 8.8 °C 8.2 °C 1010.0 hPa SSW 9.3 km/h 19.5 km/h 96 % 0.0 mm
12:18 8.8 °C 8.2 °C 1010.0 hPa South 9.7 km/h 21.6 km/h 96 % 0.0 mm
12:23 8.9 °C 8.3 °C 1010.0 hPa South 6.9 km/h 21.6 km/h 96 % 0.0 mm
12:28 9.0 °C 8.4 °C 1010.0 hPa South 9.3 km/h 17.7 km/h 96 % 0.0 mm
12:33 9.1 °C 8.5 °C 1010.0 hPa SSE 13.0 km/h 16.9 km/h 96 % 0.0 mm
12:38 9.1 °C 8.5 °C 1010.0 hPa South 16.6 km/h 20.1 km/h 96 % 0.0 mm
12:43 9.1 °C 8.5 °C 1010.0 hPa SSE 12.2 km/h 20.1 km/h 96 % 0.0 mm
12:48 9.0 °C 8.4 °C 1010.0 hPa South 15.8 km/h 20.1 km/h 96 % 0.0 mm
12:53 9.0 °C 8.4 °C 1010.0 hPa East 13.0 km/h 20.1 km/h 96 % 0.0 mm
12:58 9.0 °C 8.4 °C 1010.0 hPa South 14.0 km/h 17.7 km/h 96 % 0.0 mm
13:03 9.0 °C 8.4 °C 1010.0 hPa SSW 6.4 km/h 19.5 km/h 96 % 0.0 mm
13:08 9.0 °C 8.4 °C 1010.0 hPa South 14.3 km/h 19.5 km/h 96 % 0.0 mm
13:13 9.0 °C 8.4 °C 1010.0 hPa SSE 13.0 km/h 20.9 km/h 96 % 0.0 mm
13:18 9.0 °C 8.4 °C 1010.0 hPa South 6.9 km/h 20.9 km/h 96 % 0.0 mm
13:23 9.0 °C 8.4 °C 1009.0 hPa South 12.6 km/h 19.1 km/h 96 % 0.0 mm
13:28 9.0 °C 8.4 °C 1009.0 hPa South 6.9 km/h 18.0 km/h 96 % 0.0 mm
13:33 9.0 °C 8.4 °C 1009.0 hPa SSE 9.0 km/h 18.3 km/h 96 % 0.0 mm
13:38 9.0 °C 8.4 °C 1009.0 hPa South 9.7 km/h 18.3 km/h 96 % 0.0 mm
13:43 9.0 °C 8.4 °C 1009.0 hPa South 13.7 km/h 16.6 km/h 96 % 0.0 mm
13:48 9.0 °C 8.4 °C 1009.0 hPa South 15.8 km/h 17.7 km/h 96 % 0.0 mm
13:53 9.0 °C 8.4 °C 1008.0 hPa SSE 10.1 km/h 17.7 km/h 96 % 0.0 mm
13:58 9.0 °C 8.4 °C 1008.0 hPa SSE 6.4 km/h 16.3 km/h 96 % 0.0 mm
14:03 9.0 °C 8.4 °C 1008.0 hPa South 11.6 km/h 17.2 km/h 96 % 0.0 mm
14:08 8.9 °C 8.3 °C 1009.0 hPa SSE 12.2 km/h 17.2 km/h 96 % 0.0 mm
14:13 8.9 °C 8.3 °C 1009.0 hPa SW 5.0 km/h 17.2 km/h 96 % 0.0 mm
14:18 8.9 °C 8.3 °C 1009.0 hPa SSE 10.1 km/h 19.5 km/h 96 % 0.0 mm
14:23 8.9 °C 8.3 °C 1009.0 hPa SSE 9.3 km/h 19.5 km/h 96 % 0.0 mm
14:28 8.9 °C 8.3 °C 1009.0 hPa SSE 8.7 km/h 15.8 km/h 96 % 0.0 mm
14:33 8.9 °C 8.3 °C 1009.0 hPa SSW 5.5 km/h 14.3 km/h 96 % 0.0 mm
14:38 9.0 °C 8.4 °C 1009.0 hPa SSE 12.6 km/h 16.3 km/h 96 % 0.0 mm
14:43 9.0 °C 8.4 °C 1009.0 hPa SSE 11.6 km/h 16.6 km/h 96 % 0.0 mm
14:48 9.0 °C 8.4 °C 1009.0 hPa SSW 10.1 km/h 16.6 km/h 96 % 0.0 mm
14:53 9.0 °C 8.4 °C 1009.0 hPa South 11.1 km/h 18.3 km/h 96 % 0.0 mm
14:58 9.0 °C 8.4 °C 1009.0 hPa South 6.1 km/h 18.3 km/h 96 % 0.0 mm
15:03 9.0 °C 8.4 °C 1009.0 hPa South 10.1 km/h 14.0 km/h 96 % 0.0 mm
15:08 9.0 °C 8.4 °C 1009.0 hPa South 10.5 km/h 16.9 km/h 96 % 0.0 mm
15:13 9.1 °C 8.5 °C 1009.0 hPa SSW 10.1 km/h 16.9 km/h 96 % 0.0 mm
15:18 9.1 °C 8.5 °C 1009.0 hPa SSW 9.0 km/h 16.9 km/h 96 % 0.0 mm
15:23 9.1 °C 8.5 °C 1009.0 hPa SSW 9.7 km/h 16.9 km/h 96 % 0.0 mm
15:28 9.0 °C 8.4 °C 1009.0 hPa South 7.9 km/h 16.6 km/h 96 % 0.0 mm
15:33 9.0 °C 8.4 °C 1009.0 hPa SSE 20.9 km/h 20.9 km/h 96 % 0.0 mm
15:38 9.0 °C 8.4 °C 1009.0 hPa South 12.6 km/h 20.9 km/h 96 % 0.0 mm
15:43 9.0 °C 8.4 °C 1009.0 hPa SSW 9.7 km/h 19.1 km/h 96 % 0.0 mm
15:48 9.0 °C 8.4 °C 1009.0 hPa South 8.7 km/h 13.0 km/h 96 % 0.0 mm
15:53 9.0 °C 8.4 °C 1009.0 hPa South 5.8 km/h 13.0 km/h 96 % 0.0 mm
15:58 9.0 °C 8.4 °C 1009.0 hPa SSW 9.7 km/h 14.0 km/h 96 % 0.0 mm
16:03 9.0 °C 8.4 °C 1009.0 hPa SSW 9.3 km/h 15.4 km/h 96 % 0.0 mm
16:08 9.0 °C 8.4 °C 1009.0 hPa SSW 9.7 km/h 15.8 km/h 96 % 0.0 mm
16:13 9.0 °C 8.4 °C 1009.0 hPa SSE 6.9 km/h 15.8 km/h 96 % 0.0 mm
16:18 9.0 °C 8.4 °C 1009.0 hPa SSW 6.9 km/h 14.3 km/h 96 % 0.0 mm
16:23 9.0 °C 8.4 °C 1009.0 hPa South 6.4 km/h 16.6 km/h 96 % 0.0 mm
16:28 9.0 °C 8.4 °C 1009.0 hPa South 6.1 km/h 16.6 km/h 96 % 0.0 mm
16:33 9.0 °C 8.4 °C 1009.0 hPa SSW 10.1 km/h 13.7 km/h 96 % 0.0 mm
16:38 8.9 °C 8.3 °C 1008.0 hPa SSE 6.9 km/h 12.6 km/h 96 % 0.3 mm
16:43 8.9 °C 8.3 °C 1008.0 hPa South 7.9 km/h 12.6 km/h 96 % 0.3 mm
16:48 8.9 °C 8.3 °C 1008.0 hPa SSE 9.0 km/h 16.6 km/h 96 % 0.3 mm
16:53 8.9 °C 8.3 °C 1008.0 hPa South 12.2 km/h 16.6 km/h 96 % 0.3 mm
16:58 8.9 °C 8.3 °C 1008.0 hPa South 6.9 km/h 14.0 km/h 96 % 0.3 mm
17:03 8.9 °C 8.3 °C 1008.0 hPa South 13.7 km/h 14.8 km/h 96 % 0.3 mm
17:08 8.9 °C 8.3 °C 1008.0 hPa South 9.3 km/h 15.4 km/h 96 % 0.3 mm
17:13 8.9 °C 8.3 °C 1008.0 hPa South 14.0 km/h 16.9 km/h 96 % 0.3 mm
17:18 8.9 °C 8.3 °C 1008.0 hPa South 6.4 km/h 16.9 km/h 96 % 0.3 mm
17:23 8.9 °C 8.3 °C 1008.0 hPa SSW 5.0 km/h 15.8 km/h 96 % 0.3 mm
17:28 8.8 °C 8.2 °C 1008.0 hPa SSW 13.7 km/h 15.8 km/h 96 % 0.3 mm
17:33 8.8 °C 8.2 °C 1008.0 hPa SSW 9.7 km/h 13.7 km/h 96 % 0.3 mm
17:38 8.8 °C 8.2 °C 1008.0 hPa South 6.9 km/h 13.0 km/h 96 % 0.3 mm
17:43 8.8 °C 8.2 °C 1008.0 hPa SSW 5.8 km/h 13.0 km/h 96 % 0.3 mm
17:48 8.8 °C 8.2 °C 1008.0 hPa SSW 6.4 km/h 15.1 km/h 96 % 0.3 mm
17:53 8.8 °C 8.2 °C 1008.0 hPa South 6.9 km/h 15.1 km/h 96 % 0.3 mm
17:58 8.8 °C 8.2 °C 1008.0 hPa South 14.0 km/h 14.0 km/h 96 % 0.5 mm
18:03 8.8 °C 8.2 °C 1008.0 hPa South 14.0 km/h 15.1 km/h 96 % 0.5 mm
18:08 8.8 °C 8.2 °C 1008.0 hPa SSE 10.5 km/h 15.1 km/h 96 % 0.5 mm
18:13 8.8 °C 8.2 °C 1008.0 hPa SSE 12.6 km/h 14.0 km/h 96 % 0.5 mm
18:18 8.8 °C 8.2 °C 1008.0 hPa SSE 9.0 km/h 23.3 km/h 96 % 0.8 mm
18:23 8.9 °C 8.3 °C 1008.0 hPa SSE 9.7 km/h 23.3 km/h 96 % 0.8 mm
18:28 8.9 °C 8.3 °C 1008.0 hPa SSE 9.0 km/h 15.4 km/h 96 % 0.8 mm
18:33 8.9 °C 8.3 °C 1008.0 hPa South 19.1 km/h 19.1 km/h 96 % 0.8 mm
18:38 8.9 °C 8.3 °C 1008.0 hPa SSE 5.8 km/h 19.1 km/h 96 % 0.8 mm
18:43 8.9 °C 8.3 °C 1008.0 hPa South 5.5 km/h 19.8 km/h 96 % 0.8 mm
18:48 8.9 °C 8.3 °C 1008.0 hPa South 9.7 km/h 19.8 km/h 96 % 0.8 mm
18:53 8.9 °C 8.3 °C 1008.0 hPa SSE 8.7 km/h 17.2 km/h 96 % 0.8 mm
18:54 8.9 °C 8.3 °C 1008.0 hPa SE 7.9 km/h 17.2 km/h 96 % 0.8 mm
18:59 9.0 °C 8.4 °C 1008.0 hPa SSE 9.7 km/h 23.8 km/h 96 % 0.3 mm
19:04 9.0 °C 8.4 °C 1008.0 hPa South 10.5 km/h 23.8 km/h 96 % 0.3 mm
19:09 9.0 °C 8.4 °C 1008.0 hPa SSE 9.0 km/h 16.3 km/h 96 % 0.3 mm
19:14 9.0 °C 8.4 °C 1008.0 hPa South 5.0 km/h 15.8 km/h 96 % 0.3 mm
19:19 9.0 °C 8.4 °C 1008.0 hPa SSW 6.9 km/h 14.0 km/h 96 % 0.0 mm
19:24 9.0 °C 8.4 °C 1008.0 hPa SSE 10.5 km/h 15.4 km/h 96 % 0.0 mm
19:29 9.0 °C 8.4 °C 1008.0 hPa SSW 9.7 km/h 16.3 km/h 96 % 0.0 mm
19:34 9.0 °C 8.4 °C 1008.0 hPa SW 10.1 km/h 18.0 km/h 96 % 0.0 mm
19:39 9.0 °C 8.4 °C 1008.0 hPa South 7.9 km/h 18.0 km/h 96 % 0.0 mm
19:44 9.0 °C 8.4 °C 1008.0 hPa South 10.5 km/h 17.2 km/h 96 % 0.0 mm
19:49 9.0 °C 8.4 °C 1008.0 hPa SSW 9.0 km/h 16.6 km/h 96 % 0.0 mm
19:54 9.0 °C 8.4 °C 1007.0 hPa SSW 9.3 km/h 12.6 km/h 96 % 0.0 mm
19:59 9.0 °C 8.4 °C 1007.0 hPa SSW 11.9 km/h 16.3 km/h 96 % 0.0 mm
20:04 9.1 °C 8.5 °C 1007.0 hPa South 9.3 km/h 17.2 km/h 96 % 0.0 mm
20:09 9.1 °C 8.5 °C 1008.0 hPa SSE 14.0 km/h 17.2 km/h 96 % 0.0 mm
20:14 9.1 °C 8.7 °C 1008.0 hPa South 15.4 km/h 17.2 km/h 97 % 0.0 mm
20:19 9.1 °C 8.7 °C 1008.0 hPa SSE 10.1 km/h 19.5 km/h 97 % 0.0 mm
20:24 9.1 °C 8.5 °C 1007.0 hPa SSE 13.0 km/h 20.1 km/h 96 % 0.0 mm
20:29 9.1 °C 8.7 °C 1007.0 hPa SSW 9.3 km/h 20.1 km/h 97 % 0.0 mm
20:34 9.1 °C 8.5 °C 1007.0 hPa South 6.9 km/h 14.0 km/h 96 % 0.0 mm
20:39 9.1 °C 8.5 °C 1007.0 hPa SSW 8.7 km/h 14.0 km/h 96 % 0.0 mm
20:44 9.1 °C 8.5 °C 1007.0 hPa SSE 13.0 km/h 13.0 km/h 96 % 0.0 mm
20:49 9.1 °C 8.5 °C 1007.0 hPa SSE 10.5 km/h 17.2 km/h 96 % 0.0 mm
20:54 9.1 °C 8.5 °C 1007.0 hPa South 13.7 km/h 17.2 km/h 96 % 0.0 mm
20:59 9.1 °C 8.7 °C 1007.0 hPa SSW 6.9 km/h 13.7 km/h 97 % 0.0 mm
21:04 9.1 °C 8.5 °C 1007.0 hPa SSW 12.2 km/h 15.8 km/h 96 % 0.0 mm
21:09 9.1 °C 8.7 °C 1007.0 hPa South 11.6 km/h 15.8 km/h 97 % 0.0 mm
21:14 9.1 °C 8.7 °C 1007.0 hPa South 7.9 km/h 14.0 km/h 97 % 0.0 mm
21:19 9.2 °C 8.6 °C 1007.0 hPa South 11.9 km/h 14.0 km/h 96 % 0.0 mm
21:24 9.1 °C 8.7 °C 1008.0 hPa South 10.5 km/h 14.0 km/h 97 % 0.0 mm
21:29 9.1 °C 8.7 °C 1008.0 hPa South 6.4 km/h 13.0 km/h 97 % 0.0 mm
21:34 9.1 °C 8.5 °C 1008.0 hPa South 7.9 km/h 13.0 km/h 96 % 0.0 mm
21:39 9.1 °C 8.5 °C 1007.0 hPa SSE 8.7 km/h 13.0 km/h 96 % 0.0 mm
21:44 9.0 °C 8.4 °C 1007.0 hPa SSW 11.6 km/h 12.2 km/h 96 % 0.0 mm
21:49 9.0 °C 8.4 °C 1007.0 hPa South 9.7 km/h 11.6 km/h 96 % 0.0 mm
21:54 9.0 °C 8.4 °C 1007.0 hPa South 8.7 km/h 11.9 km/h 96 % 0.0 mm
21:59 9.0 °C 8.4 °C 1007.0 hPa South 3.5 km/h 11.9 km/h 96 % 0.0 mm
22:04 9.0 °C 8.4 °C 1007.0 hPa South 4.3 km/h 9.0 km/h 96 % 0.0 mm
22:09 8.9 °C 8.3 °C 1007.0 hPa SSW 1.4 km/h 9.0 km/h 96 % 0.0 mm
22:14 8.9 °C 8.3 °C 1007.0 hPa South 6.1 km/h 10.1 km/h 96 % 0.0 mm
22:19 8.8 °C 8.2 °C 1007.0 hPa South 6.4 km/h 10.1 km/h 96 % 0.0 mm
22:24 8.7 °C 8.3 °C 1007.0 hPa South 5.5 km/h 9.0 km/h 97 % 0.0 mm
22:29 8.7 °C 8.3 °C 1007.0 hPa South 9.7 km/h 10.8 km/h 97 % 0.0 mm
22:34 8.8 °C 8.2 °C 1007.0 hPa South 6.9 km/h 10.8 km/h 96 % 0.0 mm
22:39 8.8 °C 8.4 °C 1007.0 hPa South 5.5 km/h 13.0 km/h 97 % 0.0 mm
22:44 8.9 °C 8.4 °C 1007.0 hPa SSW 11.6 km/h 13.0 km/h 97 % 0.0 mm
22:49 8.9 °C 8.4 °C 1007.0 hPa South 8.7 km/h 13.0 km/h 97 % 0.0 mm
22:54 8.9 °C 8.4 °C 1007.0 hPa South 10.1 km/h 13.0 km/h 97 % 0.0 mm
22:59 8.9 °C 8.4 °C 1007.0 hPa SSW 8.7 km/h 11.9 km/h 97 % 0.0 mm
23:04 8.9 °C 8.4 °C 1007.0 hPa South 9.3 km/h 13.0 km/h 97 % 0.0 mm
23:05 8.9 °C 8.4 °C 1007.0 hPa SSW 6.1 km/h 13.0 km/h 97 % 0.0 mm
23:10 8.9 °C 8.4 °C 1007.0 hPa South 8.7 km/h 11.9 km/h 97 % 0.0 mm
23:15 8.9 °C 8.4 °C 1007.0 hPa SSW 6.9 km/h 16.9 km/h 97 % 0.0 mm
23:20 8.9 °C 8.4 °C 1007.0 hPa South 7.9 km/h 16.9 km/h 97 % 0.0 mm
23:25 8.9 °C 8.4 °C 1007.0 hPa SSW 11.9 km/h 13.7 km/h 97 % 0.0 mm
23:30 8.9 °C 8.4 °C 1007.0 hPa SSW 9.3 km/h 13.7 km/h 97 % 0.0 mm
23:35 8.8 °C 8.4 °C 1007.0 hPa SSW 10.1 km/h 12.6 km/h 97 % 0.0 mm
23:40 8.8 °C 8.4 °C 1007.0 hPa SSW 10.1 km/h 12.6 km/h 97 % 0.0 mm
23:45 8.7 °C 8.3 °C 1007.0 hPa South 9.0 km/h 10.5 km/h 97 % 0.0 mm
23:50 8.7 °C 8.3 °C 1007.0 hPa SSW 9.7 km/h 11.9 km/h 97 % 0.0 mm
23:55 8.7 °C 8.3 °C 1006.0 hPa South 6.1 km/h 14.0 km/h 97 % 0.0 mm
Le Gheer Warneton
Courtoisie de Weather Underground - 2.25 mb

Mise a jour : 17/12/2017 22:32:12
Généré par Cumulus 1.9.4 (1099)